STARLINK-32156 (60278 NORAD) Tracking and Keplerian Element Data

This shows tracking and keplerian element data for the satellite.

Feedback or suggestion? Click here.




ElementValue
Catalog60278
NameSTARLINK-32156
Epoch Orbit1419
Epoch Day286.3939916
Epoch Year2024
RAAN276.562
Inclination53.1585
Eccentricity0.0001271
Argument of Perigee89.9882
Mean Anonmoly270.1264
Mean Motion15.30191813
Decay Rate0.00012086
L11 60278U 24132A 24286.39399160 .00012086 00000+0 41964-3 0 9990
L22 60278 53.1585 276.5620 0001271 89.9882 270.1264 15.30191813 14194



Live tracking and technical data element details for STARLINK-32156 (NORAD 60278). STARLINK-32156 can be tracked NOW for your location showing map with azimuth and elevation plus other details from your city location.







IsCatalogInMostPopularTable: catalog: 60278, numindb: 12
Update: records affected: 1



GetName: 60278 STARLINK-32156

Hit Count: updated at: Thu, 23 Jan 2025 17:16:59 GMT